Osaka Airport, Japan

4:01 PM JST on June 28, 2017 (GMT +0900)
Osaka International

Weather History for RJOO - October, 2013

Change the Weather History Date:

Thursday, October 24, 2013

  Actual Average Record
Temperature  
Mean Temperature 70 °F -  
Max Temperature 73 °F 63 °F 80 °F (2000)
Min Temperature 66 °F 47 °F 46 °F (2003)
Cooling Degree Days 4    
Growing Degree Days 20 (Base 50)    
Moisture  
Dew Point 59 °F    
Average Humidity 72    
Maximum Humidity 88    
Minimum Humidity 57    
Precipitation  
Precipitation 0.00 in - - ()
Sea Level Pressure  
Sea Level Pressure 29.90 in    
Wind  
Wind Speed 14 mph ()    
Max Wind Speed 20 mph    
Max Gust Speed 31 mph    
Visibility 5.9 miles    
Events Rain , Thunderstorm    
Averages and records for this station are not official NWS values.
T = Trace of Precipitation, MM = Missing Value Source: Averaged Metar Reports

Daily Weather History Graph

Daily Weather History Graph

Search for Another Location

Airport or City:

Trip Planner

Search our weather history database for the weather conditions in past years. The results will help you decide how hot, cold, wet, or windy it might be!

Date:

Astronomy

Oct. 24, 2013 Rise Set
Actual Time 6:11 AM JST 5:13 PM JST
Civil Twilight 5:45 AM JST 5:38 PM JST
Nautical Twilight 5:16 AM JST 6:08 PM JST
Astronomical Twilight 4:46 AM JST 6:37 PM JST
Moon 9:09 PM JST (10/24) 10:39 AM JST (10/24)
Length of Visible Light 11h 53m
Length of Day
11h 01m
Waning Gibbous, 76% of the Moon is Illuminated
Oct 24
Waning Gibbous
Oct 27
Last Quarter
Nov 3
New
Nov 10
First Quarter
Nov 18
Full

Hourly Weather History & Observations

Time (JST) Temp. Dew Point Humidity Pressure Visibility Wind Dir Wind Speed Gust Speed Precip Events Conditions
5:00 AM 66.2 °F 57.2 °F 73% 30.01 in 6.2 mi ENE 12.7 mph - N/A Rain Light Rain
6:00 AM 66.2 °F 57.2 °F 73% 29.98 in 6.2 mi ENE 15.0 mph - N/A   Mostly Cloudy
7:00 AM 66.2 °F 57.2 °F 73% 29.98 in 6.2 mi ENE 17.3 mph - N/A   Mostly Cloudy
8:00 AM 68.0 °F 57.2 °F 68% 30.01 in 6.2 mi ENE 16.1 mph - N/A   Mostly Cloudy
9:00 AM 68.0 °F 57.2 °F 68% 29.98 in 6.2 mi ENE 18.4 mph - N/A   Mostly Cloudy
10:00 AM 69.8 °F 57.2 °F 64% 29.95 in 6.2 mi ENE 17.3 mph - N/A   Mostly Cloudy
11:00 AM 71.6 °F 57.2 °F 60% 29.92 in 6.2 mi ENE 17.3 mph - N/A   Mostly Cloudy
11:23 AM 71.6 °F 59.0 °F 64% 29.92 in 6.2 mi ENE 17.3 mph 28.8 mph N/A   Mostly Cloudy
12:00 PM 73.4 °F 57.2 °F 57% 29.89 in 6.2 mi ENE 18.4 mph 31.1 mph N/A   Scattered Clouds
1:00 PM 73.4 °F 57.2 °F 57% 29.86 in 6.2 mi ENE 16.1 mph - N/A   Mostly Cloudy
2:00 PM 71.6 °F 59.0 °F 64% 29.86 in 6.2 mi ENE 17.3 mph - N/A Rain Light Rain
2:01 PM 71.6 °F 59.0 °F 64% 29.86 in 6.2 mi ENE 17.3 mph 29.9 mph N/A Rain Light Rain
3:00 PM 71.6 °F 59.0 °F 64% 29.86 in 6.2 mi ENE 19.6 mph - N/A   Mostly Cloudy
3:02 PM 71.6 °F 59.0 °F 64% 29.86 in 6.2 mi ENE 18.4 mph 29.9 mph N/A   Mostly Cloudy
4:00 PM 69.8 °F 59.0 °F 68% 29.86 in 6.2 mi East 15.0 mph - N/A Rain Light Rain
5:00 PM 69.8 °F 59.0 °F 68% 29.83 in 6.2 mi ENE 15.0 mph - N/A Rain Light Rain
5:45 PM 68.0 °F 60.8 °F 78% 29.86 in 4.3 mi East 15.0 mph - N/A Rain , Thunderstorm Thunderstorms and Rain
6:00 PM 66.2 °F 62.6 °F 88% 29.86 in 2.5 mi ENE 15.0 mph - N/A Rain Heavy Rain Showers
6:06 PM 66.2 °F 62.6 °F 88% 29.86 in 4.3 mi ENE 12.7 mph - N/A Rain Rain Showers
6:08 PM 66.2 °F 62.6 °F 88% 29.86 in 6.2 mi NE 12.7 mph - N/A Rain Rain Showers
6:23 PM 66.2 °F 62.6 °F 88% 29.86 in 6.2 mi ENE 12.7 mph - N/A Rain Light Rain Showers
7:00 PM 66.2 °F 62.6 °F 88% 29.86 in 6.2 mi ENE 9.2 mph - N/A   Mostly Cloudy
8:00 PM 68.0 °F 62.6 °F 83% 29.83 in 6.2 mi ENE 12.7 mph - N/A   Mostly Cloudy